User: anonymous   Login
Location: Unspecified
(0.0000°N, 0.0000°E)
Time: 03:28:27
(UTC+02:00)
Language:

Sapphire - Orbit

View from above orbital plane
View from above orbital plane
View from above satellite
View from above satellite

Ground track
Ground track

The orbit data is extracted from the following two-line orbital elements,

1 26932U 01043D   15208.09305637 -.00000038  00000-0  17243-4 0  9992
2 26932 067.0561 075.5626 0004438 256.3438 103.7169 14.30158131721543
Epoch (UTC): 27 July 2015 02:14:00
Eccentricity: 0.0004438
inclination: 67.0561°
perigee height: 788 km
apogee height: 794 km
right ascension of ascending node: 75.5626°
argument of perigee: 256.3438°
revolutions per day: 14.30158131
mean anomaly at epoch: 103.7169°
orbit number at epoch: 72154

The dashed part of the orbit path shows where the satellite is in the earth's shadow,  

DLR